�������l�o���
Date,Time,MP-1(��Sv/h),MP-2(��Sv/h),MP-3(��Sv/h),MP-4(��Sv/h),MP-5(��Sv/h),MP-6(��Sv/h),MP-7(��Sv/h),MP-8(��Sv/h),����,����(m/s),���J
2022/06/22,00:00,0.587,0.864,0.541,1.029,0.731,0.347,0.599,0.562,��,0.6,��
2022/06/22,00:10,0.588,0.864,0.542,1.026,0.733,0.347,0.600,0.562,�k��,1.2,��
2022/06/22,00:20,0.587,0.863,0.542,1.026,0.733,0.347,0.599,0.562,�k�k��,1.4,��
2022/06/22,00:30,0.586,0.864,0.542,1.027,0.732,0.346,0.599,0.563,�k�k��,1.2,��
2022/06/22,00:40,0.586,0.862,0.540,1.028,0.732,0.347,0.600,0.563,�k�k��,2.3,��
2022/06/22,00:50,0.586,0.864,0.543,1.027,0.729,0.345,0.599,0.563,�k,2.0,��
2022/06/22,01:00,0.589,0.862,0.540,1.028,0.732,0.346,0.598,0.564,�k�k��,2.3,��
2022/06/22,01:10,0.587,0.864,0.542,1.026,0.732,0.345,0.600,0.564,�k,2.0,��
2022/06/22,01:20,0.587,0.862,0.541,1.028,0.731,0.346,0.599,0.563,�k,3.0,��
2022/06/22,01:30,0.588,0.864,0.543,1.025,0.729,0.346,0.599,0.563,�k,2.3,��
2022/06/22,01:40,0.587,0.863,0.540,1.027,0.730,0.346,0.599,0.563,�k,3.7,��
2022/06/22,01:50,0.586,0.862,0.542,1.027,0.732,0.346,0.598,0.564,�k,3.8,��
2022/06/22,02:00,0.588,0.863,0.542,1.026,0.731,0.348,0.599,0.563,�k,3.2,��
2022/06/22,02:10,0.587,0.861,0.542,1.027,0.730,0.346,0.597,0.563,�k,2.0,��
2022/06/22,02:20,0.587,0.863,0.542,1.028,0.732,0.346,0.599,0.563,�k,2.3,��
2022/06/22,02:30,0.585,0.864,0.543,1.028,0.732,0.346,0.598,0.563,�k,2.6,��
2022/06/22,02:40,0.586,0.861,0.541,1.028,0.731,0.346,0.599,0.564,�k,2.0,��
2022/06/22,02:50,0.586,0.864,0.541,1.028,0.732,0.346,0.598,0.565,�k�k��,2.0,��
2022/06/22,03:00,0.586,0.866,0.541,1.027,0.732,0.345,0.598,0.564,�k,2.3,��
2022/06/22,03:10,0.586,0.862,0.540,1.026,0.730,0.345,0.598,0.564,�k�k��,1.7,��
2022/06/22,03:20,0.584,0.862,0.541,1.028,0.731,0.346,0.596,0.563,�k�k��,1.4,��
2022/06/22,03:30,0.585,0.862,0.542,1.026,0.730,0.346,0.598,0.564,�k�k��,2.3,��
2022/06/22,03:40,0.584,0.863,0.541,1.026,0.731,0.344,0.598,0.562,�k�k��,2.5,��
2022/06/22,03:50,0.584,0.863,0.542,1.027,0.729,0.344,0.597,0.563,�k�k��,3.2,��
2022/06/22,04:00,0.586,0.863,0.542,1.026,0.731,0.346,0.596,0.563,�k,2.3,��
2022/06/22,04:10,0.586,0.862,0.543,1.026,0.732,0.344,0.598,0.563,�k�k��,1.2,��
2022/06/22,04:20,0.588,0.863,0.540,1.028,0.731,0.345,0.596,0.562,�k�k��,1.4,��
2022/06/22,04:30,0.587,0.862,0.541,1.027,0.730,0.346,0.596,0.562,�k�k��,1.7,��
2022/06/22,04:40,0.586,0.861,0.540,1.027,0.731,0.345,0.598,0.564,�k�k��,2.8,��
2022/06/22,04:50,0.586,0.863,0.541,1.027,0.730,0.346,0.597,0.563,�k,2.8,��
2022/06/22,05:00,0.584,0.862,0.540,1.026,0.729,0.345,0.598,0.562,�k,3.8,��
2022/06/22,05:10,0.586,0.861,0.539,1.027,0.731,0.346,0.596,0.563,�k,4.5,��
2022/06/22,05:20,0.586,0.861,0.542,1.028,0.731,0.345,0.599,0.563,�k,3.0,��
2022/06/22,05:30,0.587,0.861,0.541,1.027,0.732,0.346,0.598,0.563,�k�k��,3.0,�L
2022/06/22,05:40,0.584,0.863,0.541,1.027,0.731,0.346,0.598,0.562,�k�k��,3.1,�L
2022/06/22,05:50,0.585,0.860,0.539,1.026,0.732,0.345,0.596,0.564,�k�k��,3.5,�L
2022/06/22,06:00,0.586,0.862,0.541,1.027,0.730,0.345,0.597,0.562,�k,3.3,��
2022/06/22,06:10,0.584,0.861,0.541,1.026,0.730,0.346,0.597,0.563,�k,4.4,��
2022/06/22,06:20,0.586,0.862,0.541,1.028,0.731,0.344,0.597,0.562,�k,4.0,�L
2022/06/22,06:30,0.586,0.862,0.541,1.024,0.730,0.345,0.594,0.564,�k,3.5,��
2022/06/22,06:40,0.586,0.860,0.539,1.026,0.731,0.345,0.596,0.563,�k,2.6,��
2022/06/22,06:50,0.587,0.861,0.541,1.026,0.731,0.346,0.596,0.563,�k�k��,2.8,��
2022/06/22,07:00,0.585,0.862,0.540,1.025,0.730,0.345,0.597,0.564,�k�k��,3.8,��
2022/06/22,07:10,0.585,0.861,0.542,1.026,0.728,0.344,0.596,0.564,�k,2.9,��
2022/06/22,07:20,0.586,0.861,0.541,1.027,0.731,0.344,0.597,0.563,�k�k��,1.7,��
2022/06/22,07:30,0.586,0.862,0.542,1.025,0.730,0.344,0.595,0.562,�k�k��,3.0,��
2022/06/22,07:40,0.586,0.861,0.542,1.025,0.730,0.345,0.596,0.562,�k�k��,4.0,��
2022/06/22,07:50,0.586,0.860,0.541,1.027,0.731,0.343,0.593,0.563,�k,4.3,��
2022/06/22,08:00,0.584,0.860,0.542,1.026,0.729,0.345,0.594,0.561,�k,4.4,��
2022/06/22,08:10,0.585,0.859,0.540,1.025,0.728,0.344,0.593,0.562,�k,3.8,��
2022/06/22,08:20,0.582,0.858,0.541,1.027,0.732,0.343,0.594,0.561,�k,4.2,��
2022/06/22,08:30,0.585,0.856,0.538,1.024,0.730,0.343,0.595,0.561,�k�k��,4.4,��
2022/06/22,08:40,0.584,0.857,0.539,1.023,0.729,0.341,0.594,0.559,�k�k��,3.7,��
2022/06/22,08:50,0.583,0.858,0.536,1.025,0.727,0.342,0.596,0.562,�k�k��,4.2,�L
2022/06/22,09:00,0.584,0.857,0.538,1.028,0.727,0.344,0.595,0.562,�k,3.6,�L
2022/06/22,09:10,0.583,0.857,0.538,1.026,0.727,0.343,0.595,0.563,�k�k��,4.1,�L
2022/06/22,09:20,0.584,0.855,0.537,1.027,0.727,0.344,0.594,0.561,�k�k��,4.4,�L
2022/06/22,09:30,0.583,0.857,0.539,1.027,0.727,0.345,0.595,0.562,�k�k��,4.8,�L
2022/06/22,09:40,0.582,0.856,0.539,1.026,0.729,0.345,0.593,0.560,�k�k��,4.4,�L
2022/06/22,09:50,0.584,0.854,0.540,1.027,0.729,0.345,0.595,0.560,�k�k��,3.4,�L
2022/06/22,10:00,0.584,0.854,0.540,1.030,0.730,0.344,0.595,0.562,�k�k��,3.9,�L
2022/06/22,10:10,0.582,0.855,0.538,1.028,0.727,0.345,0.595,0.560,�k�k��,4.1,�L
2022/06/22,10:20,0.583,0.852,0.539,1.028,0.729,0.344,0.593,0.561,�k,3.8,�L
2022/06/22,10:30,0.583,0.851,0.539,1.027,0.729,0.343,0.594,0.561,�k�k��,2.9,�L
2022/06/22,10:40,0.584,0.854,0.540,1.026,0.731,0.344,0.594,0.560,�k�k��,3.5,�L
2022/06/22,10:50,0.582,0.854,0.540,1.026,0.729,0.346,0.593,0.559,�k�k��,3.3,�L
2022/06/22,11:00,0.582,0.855,0.538,1.028,0.727,0.346,0.593,0.562,�k�k��,3.2,�L
2022/06/22,11:10,0.584,0.855,0.537,1.028,0.728,0.345,0.592,0.560,�k�k��,3.4,�L
2022/06/22,11:20,0.583,0.852,0.540,1.029,0.729,0.346,0.595,0.562,�k�k��,3.1,�L
2022/06/22,11:30,0.582,0.853,0.540,1.027,0.729,0.346,0.592,0.564,�k�k��,2.9,�L
2022/06/22,11:40,0.582,0.854,0.540,1.027,0.728,0.345,0.593,0.560,�k�k��,2.6,�L
2022/06/22,11:50,0.584,0.856,0.539,1.027,0.728,0.346,0.593,0.559,�k,3.0,��
2022/06/22,12:00,0.584,0.856,0.541,1.026,0.729,0.345,0.594,0.562,�k,3.1,��
2022/06/22,12:10,0.583,0.855,0.539,1.029,0.726,0.343,0.593,0.563,�k,2.9,��
2022/06/22,12:20,0.582,0.855,0.539,1.027,0.727,0.344,0.593,0.561,�k,3.1,��
2022/06/22,12:30,0.583,0.856,0.539,1.026,0.728,0.345,0.594,0.560,�k,3.3,��
2022/06/22,12:40,0.582,0.854,0.538,1.027,0.728,0.345,0.594,0.559,�k�k��,3.8,��
2022/06/22,12:50,0.582,0.858,0.536,1.026,0.727,0.344,0.594,0.560,�k,4.0,��
2022/06/22,13:00,0.581,0.854,0.536,1.026,0.729,0.343,0.593,0.559,�k,4.1,��
2022/06/22,13:10,0.582,0.853,0.537,1.024,0.728,0.343,0.595,0.559,�k�k��,4.2,��
2022/06/22,13:20,0.582,0.853,0.538,1.025,0.726,0.343,0.594,0.560,�k�k��,4.1,��
2022/06/22,13:30,0.582,0.853,0.536,1.025,0.725,0.343,0.593,0.560,�k,4.4,��
2022/06/22,13:40,0.582,0.852,0.538,1.025,0.727,0.342,0.593,0.558,�k,4.6,��
2022/06/22,13:50,0.583,0.853,0.537,1.025,0.731,0.343,0.594,0.559,�k�k��,4.0,��
2022/06/22,14:00,0.581,0.854,0.537,1.027,0.728,0.344,0.595,0.559,�k,4.2,�L
2022/06/22,14:10,0.584,0.854,0.538,1.026,0.728,0.344,0.594,0.560,�k,4.0,�L
2022/06/22,14:20,0.584,0.854,0.539,1.027,0.728,0.345,0.594,0.561,�k,3.7,�L
2022/06/22,14:30,0.584,0.849,0.538,1.024,0.727,0.343,0.593,0.561,�k,3.7,�L
2022/06/22,14:40,0.583,0.852,0.537,1.026,0.728,0.344,0.593,0.560,�k,3.2,�L
2022/06/22,14:50,0.583,0.854,0.538,1.026,0.727,0.343,0.595,0.560,�k,3.9,�L
2022/06/22,15:00,0.582,0.855,0.540,1.026,0.730,0.344,0.593,0.563,�k�k��,2.6,�L
2022/06/22,15:10,0.584,0.856,0.541,1.026,0.729,0.344,0.593,0.562,�k,3.3,�L
2022/06/22,15:20,0.584,0.856,0.541,1.027,0.727,0.345,0.594,0.560,�k,3.2,�L
2022/06/22,15:30,0.582,0.857,0.540,1.026,0.728,0.344,0.594,0.560,�k,2.8,�L
2022/06/22,15:40,0.584,0.858,0.540,1.027,0.731,0.345,0.596,0.562,�k,3.4,�L
2022/06/22,15:50,0.581,0.858,0.540,1.026,0.731,0.345,0.594,0.559,�k,3.6,�L
2022/06/22,16:00,0.583,0.858,0.540,1.027,0.730,0.345,0.596,0.559,�k,2.8,�L
2022/06/22,16:10,0.581,0.857,0.541,1.027,0.729,0.345,0.593,0.560,�k,3.2,�L
2022/06/22,16:20,0.582,0.856,0.540,1.028,0.729,0.344,0.594,0.561,�k,3.1,�L
2022/06/22,16:30,0.582,0.856,0.539,1.026,0.730,0.344,0.594,0.560,�k,3.5,�L
2022/06/22,16:40,0.582,0.856,0.540,1.027,0.730,0.345,0.594,0.560,�k,3.2,�L
2022/06/22,16:50,0.582,0.856,0.540,1.027,0.730,0.345,0.593,0.561,�k,3.1,�L
2022/06/22,17:00,0.581,0.856,0.541,1.026,0.729,0.345,0.593,0.560,�k,2.9,�L
2022/06/22,17:10,0.583,0.857,0.538,1.027,0.729,0.346,0.595,0.561,�k,2.6,�L
2022/06/22,17:20,0.580,0.856,0.540,1.025,0.728,0.344,0.595,0.562,�k�k��,2.8,��
2022/06/22,17:30,0.583,0.855,0.539,1.026,0.728,0.344,0.593,0.561,�k�k��,2.3,��
2022/06/22,17:40,0.581,0.855,0.539,1.027,0.727,0.345,0.592,0.563,�k,2.3,��
2022/06/22,17:50,0.583,0.858,0.539,1.026,0.728,0.345,0.594,0.561,�k,1.5,�L
2022/06/22,18:00,0.582,0.855,0.538,1.027,0.727,0.345,0.594,0.563,�k,1.5,��
2022/06/22,18:10,0.582,0.855,0.539,1.027,0.728,0.345,0.596,0.563,�k�k��,2.2,��
2022/06/22,18:20,0.582,0.857,0.540,1.028,0.729,0.344,0.594,0.562,�k�k��,2.2,��
2022/06/22,18:30,0.583,0.857,0.538,1.026,0.729,0.345,0.595,0.561,�k,2.0,��
2022/06/22,18:40,0.582,0.855,0.539,1.026,0.728,0.345,0.595,0.562,�k,1.9,��
2022/06/22,18:50,0.582,0.856,0.538,1.026,0.728,0.343,0.594,0.561,�k,2.2,��
2022/06/22,19:00,0.580,0.857,0.538,1.025,0.729,0.344,0.595,0.561,�k�k��,2.3,��
2022/06/22,19:10,0.582,0.856,0.537,1.026,0.728,0.343,0.596,0.561,�k,2.3,��
2022/06/22,19:20,0.580,0.856,0.537,1.023,0.727,0.344,0.593,0.561,�k,2.3,��
2022/06/22,19:30,0.581,0.856,0.539,1.028,0.727,0.344,0.596,0.560,�k,2.5,��
2022/06/22,19:40,0.581,0.857,0.538,1.026,0.729,0.343,0.595,0.560,�k,1.7,��
2022/06/22,19:50,0.582,0.855,0.537,1.027,0.728,0.345,0.595,0.560,�k,1.7,��
2022/06/22,20:00,0.580,0.856,0.538,1.026,0.728,0.343,0.595,0.562,�k,2.3,��
2022/06/22,20:10,0.582,0.855,0.539,1.024,0.729,0.345,0.595,0.561,�k�k��,2.3,��
2022/06/22,20:20,0.582,0.856,0.538,1.024,0.730,0.343,0.595,0.561,�k�k��,1.7,��
2022/06/22,20:30,0.580,0.854,0.540,1.023,0.729,0.344,0.595,0.560,�k�k��,1.4,��
2022/06/22,20:40,0.583,0.855,0.540,1.025,0.729,0.343,0.595,0.562,�k,1.4,��
2022/06/22,20:50,0.581,0.857,0.538,1.023,0.729,0.345,0.595,0.561,�k,2.2,��
2022/06/22,21:00,0.580,0.855,0.538,1.024,0.729,0.344,0.596,0.561,�k�k��,2.0,��
2022/06/22,21:10,0.583,0.853,0.539,1.024,0.727,0.345,0.595,0.560,�k,2.0,��
2022/06/22,21:20,0.583,0.856,0.538,1.024,0.729,0.343,0.593,0.563,�k,1.9,��
2022/06/22,21:30,0.581,0.856,0.538,1.027,0.727,0.343,0.596,0.561,�k,2.3,��
2022/06/22,21:40,0.581,0.856,0.538,1.026,0.728,0.344,0.595,0.562,�k,2.3,��
2022/06/22,21:50,0.582,0.856,0.539,1.026,0.728,0.343,0.594,0.562,�k,2.8,��
2022/06/22,22:00,0.581,0.856,0.540,1.025,0.729,0.345,0.595,0.562,�k,2.6,��
2022/06/22,22:10,0.580,0.857,0.540,1.024,0.729,0.344,0.594,0.561,�k,2.3,��
2022/06/22,22:20,0.580,0.856,0.538,1.024,0.727,0.343,0.594,0.560,�k,1.9,��
2022/06/22,22:30,0.581,0.857,0.537,1.023,0.727,0.343,0.595,0.561,�k�k��,1.1,��
2022/06/22,22:40,0.582,0.856,0.536,1.025,0.728,0.344,0.594,0.562,�k�k��,1.1,��
2022/06/22,22:50,0.580,0.857,0.538,1.026,0.729,0.345,0.594,0.561,�k�k��,1.1,��
2022/06/22,23:00,0.580,0.856,0.540,1.025,0.727,0.344,0.594,0.561,-,CALM,��
2022/06/22,23:10,0.581,0.854,0.538,1.025,0.726,0.344,0.595,0.561,�k,1.4,��
2022/06/22,23:20,0.581,0.855,0.537,1.027,0.726,0.341,0.593,0.561,�k��,0.9,��
2022/06/22,23:30,0.580,0.855,0.537,1.026,0.729,0.344,0.595,0.561,�k,1.1,��
2022/06/22,23:40,0.582,0.856,0.538,1.025,0.728,0.344,0.593,0.561,�k,1.9,��
2022/06/22,23:50,0.579,0.855,0.538,1.025,0.727,0.343,0.595,0.562,�k,2.0,��
